Weather History for Olive Branch, MS

Change the Weather History Date:

Thursday, October 25, 2012

  Actual Average (KMEM) Record (KMEM)
Temperature  
Mean Temperature 68 °F 61 °F  
Max Temperature 78 °F 71 °F 86 °F (2000)
Min Temperature 59 °F 51 °F 31 °F (1965)
Degree Days  
Heating Degree Days 0 6  
Month to date heating degree days 80  
Since 1 July heating degree days 91  
Cooling Degree Days 4 2  
Month to date cooling degree days 83  
Year to date cooling degree days 2234  
Growing Degree Days 18 (Base 50)    
Moisture  
Dew Point 62 °F    
Average Humidity 90    
Maximum Humidity 100    
Minimum Humidity 54    
Precipitation  
Precipitation 0.00 in 0.14 in 1.61 in (1975)
Month to date precipitation 3.16  
Year to date precipitation 41.63  
Snow  
Snow 0.00 in 0.00 in 0.00 in (2002)
Month to date snowfall 0.0  
Since 1 July snowfall 0.0  
Since 1 September snowfall 0.0  
Snow Depth -    
Sea Level Pressure  
Sea Level Pressure 29.98 in    
Wind  
Wind Speed 7 mph (SSE)    
Max Wind Speed 15 mph    
Max Gust Speed 21 mph    
Visibility 10 miles    
Events      
T = Trace of Precipitation, MM = Missing Value Source: NWS Daily Summary

Daily Weather History Graph

Daily Weather History Graph

Search for Another Location

Airport:

Trip Planner

Search our weather history database for the weather conditions in past years. The results will help you decide how hot, cold, wet, or windy it might be!

Date:

Astronomy

Oct. 25, 2012 Rise Set
Actual Time 7:14 AM CDT 6:11 PM CDT
Civil Twilight 6:48 AM CDT 6:37 PM CDT
Nautical Twilight 6:18 AM CDT 7:07 PM CDT
Astronomical Twilight 5:49 AM CDT 7:36 PM CDT
Moon 3:50 PM CDT (10/25) 3:19 AM CDT (10/25)
Length of Visible Light 11h 49m
Length of Day
10h 57m
Waxing Gibbous, 84% of the Moon is Illuminated
Oct 25
Waxing Gibbous
Oct 29
Full
Nov 6
Last Quarter
Nov 13
New
Nov 20
First Quarter

Hourly Weather History & Observations

Time (CDT) Temp. Dew Point Humidity Pressure Visibility Wind Dir Wind Speed Gust Speed Precip Events Conditions
12:15 AM 62.6 °F 62.6 °F 100% 30.00 in 10.0 mi SSE 5.8 mph - 0.00 in   Clear
12:35 AM 62.6 °F 60.8 °F 94% 30.00 in 10.0 mi SSE 6.9 mph - N/A   Clear
12:55 AM 62.6 °F 60.8 °F 94% 29.99 in 9.0 mi SSE 6.9 mph - 0.00 in   Clear
1:15 AM 62.6 °F 60.8 °F 94% 29.99 in 9.0 mi SSE 8.1 mph - 0.00 in   Clear
1:35 AM 62.6 °F 60.8 °F 94% 29.99 in 9.0 mi SSE 8.1 mph - 0.00 in   Clear
1:55 AM 62.6 °F 60.8 °F 94% 29.99 in 9.0 mi SSE 6.9 mph - 0.00 in   Clear
2:15 AM 62.6 °F 60.8 °F 94% 29.99 in 10.0 mi SSE 6.9 mph - 0.00 in   Clear
2:35 AM 62.6 °F 60.8 °F 94% 29.98 in 10.0 mi SSE 9.2 mph - 0.00 in   Clear
2:55 AM 62.6 °F 60.8 °F 94% 29.98 in 10.0 mi SSE 6.9 mph - 0.00 in   Clear
3:15 AM 60.8 °F 60.8 °F 100% 29.97 in 10.0 mi SSE 8.1 mph - 0.00 in   Clear
3:35 AM 62.6 °F 60.8 °F 94% 29.97 in 8.0 mi SSE 6.9 mph - 0.00 in   Clear
3:55 AM 60.8 °F 60.8 °F 100% 29.96 in 10.0 mi SSE 6.9 mph - 0.00 in   Clear
4:15 AM 60.8 °F 60.8 °F 100% 29.96 in 10.0 mi SSE 6.9 mph - 0.00 in   Clear
4:35 AM 60.8 °F 60.8 °F 100% 29.96 in 8.0 mi SSE 5.8 mph - 0.00 in   Clear
4:55 AM 60.8 °F 60.8 °F 100% 29.96 in 10.0 mi SSE 6.9 mph - 0.00 in   Clear
5:15 AM 60.8 °F 60.8 °F 100% 29.96 in 10.0 mi SSE 6.9 mph - 0.00 in   Clear
5:35 AM 60.8 °F 60.8 °F 100% 29.96 in 10.0 mi SSE 6.9 mph - 0.00 in   Clear
5:55 AM 59.0 °F 59.0 °F 100% 29.97 in 10.0 mi SSE 5.8 mph - 0.00 in   Clear
6:15 AM 60.8 °F 60.8 °F 100% 29.97 in 10.0 mi SSE 6.9 mph - 0.00 in   Clear
6:35 AM 60.8 °F 60.8 °F 100% 29.98 in 10.0 mi SSE 6.9 mph - 0.00 in   Clear
6:50 AM 59.0 °F 59.0 °F 100% 30.00 in 10.0 mi SSW 4.6 mph - N/A   Mostly Cloudy
8:50 AM 62.6 °F 62.6 °F 100% 30.03 in 10.0 mi South 8.1 mph - N/A   Mostly Cloudy
9:50 AM 66.2 °F 64.4 °F 94% 30.03 in 10.0 mi South 11.5 mph - N/A   Mostly Cloudy
10:50 AM 69.8 °F 66.2 °F 88% 30.03 in 10.0 mi South 9.2 mph - N/A   Mostly Cloudy
11:50 AM 75.2 °F 66.2 °F 73% 30.03 in 10.0 mi South 13.8 mph 20.7 mph N/A   Mostly Cloudy
12:50 PM 78.8 °F 64.4 °F 61% 29.99 in 10.0 mi South 13.8 mph 19.6 mph N/A   Mostly Cloudy
1:50 PM 77.0 °F 62.6 °F 61% 29.97 in 10.0 mi SSW 12.7 mph - N/A   Mostly Cloudy
2:50 PM 78.8 °F 60.8 °F 54% 29.95 in 10.0 mi South 10.4 mph - N/A   Mostly Cloudy
3:45 PM 78.8 °F 60.8 °F 54% 29.95 in 10.0 mi South 15.0 mph 19.6 mph N/A   Mostly Cloudy
4:50 PM 77.0 °F 59.0 °F 54% 29.94 in 10.0 mi South 11.5 mph - N/A   Scattered Clouds
5:50 PM 73.4 °F 60.8 °F 65% 29.95 in 10.0 mi South 5.8 mph - N/A   Scattered Clouds
9:15 PM 66.2 °F 64.4 °F 94% 29.97 in 9.0 mi SSE 6.9 mph - 0.00 in   Clear
9:35 PM 66.2 °F 64.4 °F 94% 29.96 in 10.0 mi SE 8.1 mph - 0.00 in   Clear
9:55 PM 66.2 °F 64.4 °F 94% 29.97 in 9.0 mi Calm Calm - 0.00 in   Clear
10:15 PM 66.2 °F 62.6 °F 88% 29.98 in 10.0 mi South 4.6 mph - 0.00 in   Clear
10:35 PM 64.4 °F 62.6 °F 94% 29.98 in 10.0 mi South 3.5 mph - 0.00 in   Clear
10:55 PM 64.4 °F 62.6 °F 94% 29.98 in 9.0 mi Calm Calm - N/A   Clear
11:15 PM 64.4 °F 62.6 °F 94% 29.99 in 10.0 mi Calm Calm - 0.00 in   Clear
11:35 PM 64.4 °F 62.6 °F 94% 29.99 in 10.0 mi SSE 5.8 mph - 0.00 in   Partly Cloudy
11:55 PM 64.4 °F 62.6 °F 94% 29.98 in 9.0 mi SSE 5.8 mph - 0.00 in   Partly Cloudy